If you wish to contribute or participate in the discussions about articles you are invited to join SKYbrary as a registered user

 Actions

Molokai Airport

From SKYbrary Wiki

PHMK
Airport
ICAO: PHMK – IATA: MKK
Summary
Name Molokai Airport
Region North America
Territory Hawaii US.gif
Location Kaunakakai, Hawaii
Serving Molokai
Elevation 138.379 m
454 ft
454 ft138.379 m
Type medium airport
Coordinates 21° 9' 10.39" N, 157° 5' 46.52" W
Runways
Designator Length Width Surface ROPS
5/23 1370 m4,494.751 ft
30 m98.425 ft
ASP yes/yes
17/35 950 m3,116.798 ft
30 m98.425 ft
ASP yes/yes


METAR
Observation PHMK 182154Z 04009G15KT 10SM OVC049 32/19 A2993 RMK AO2 SLP133 T03220194
Station Kaunakakai, Molokai Airport
Date/Time 18 September 2019 21:54:00
Wind direction 40°
Wind speed 09 kts
Lowest cloud amount overcast
Temperature 32.2°C
Dew point 19.4°C
Humidity 46%
QNH hPa
Weather condition n/a

Molokai Airport

ICAO: PHMK IATA: MKK

Description

Molokai Airport is a state owned, public use airport located 11 km5.94 nm
11,000 m
36,089.239 ft
northwest of Kaunakakai, on the island of Molokai in Maui County, Hawaii.

Climatology

Tropical Savanna climate (Köppen climate classification As) - monthly mean temperature above 18°C64.4 °F
291.15 K
524.07 °R
in every month of the year and a pronounced dry season.

Maps

Terrain

Loading map...

Airport Layout

Loading map...


Accidents & Serious Incidents at or in vicinity of PHMK

None on SKYbrary